CST,Max TemperatureF,Mean TemperatureF,Min TemperatureF,Max Dew PointF,MeanDew PointF,Min DewpointF,Max Humidity, Mean Humidity, Min Humidity, Max Sea Level PressureIn, Mean Sea Level PressureIn, Min Sea Level PressureIn, Max VisibilityMiles, Mean VisibilityMiles, Min VisibilityMiles, Max Wind SpeedMPH, Mean Wind SpeedMPH, Max Gust SpeedMPH,PrecipitationIn, CloudCover, Events, WindDirDegrees
2012-12-1,39,30,21,34,27,19,100,87,75,29.80,29.74,29.63,10,7,0,12,4,,0.00,5,Fog,312
2012-12-2,46,32,19,37,28,18,100,81,57,29.77,29.55,29.30,10,8,0,23,4,30,0.00,2,Fog,142
2012-12-3,48,36,21,41,27,16,93,64,43,30.00,29.70,29.30,10,10,6,34,13,44,0.02,2,Rain,284
2012-12-4,24,18,12,18,13,7,93,78,68,30.26,30.17,30.02,10,10,8,10,5,,0.00,2,,76
2012-12-5,44,34,23,30,22,14,80,63,46,30.10,29.79,29.60,10,10,10,20,9,25,0.00,2,,195
2012-12-6,37,26,14,28,22,10,93,75,48,30.00,29.93,29.79,10,10,6,20,10,30,0.00,3,,283
2012-12-7,19,16,14,18,14,10,100,89,79,30.03,29.96,29.85,10,7,2,13,7,16,0.14,7,Snow,80
2012-12-8,26,16,6,25,14,0,93,85,72,30.19,29.87,29.75,10,5,1,20,8,28,1.54,8,Snow,60
2012-12-9,6,0,-7,1,-3,-13,92,78,71,30.42,30.28,30.03,10,10,5,16,10,18,0.01,5,Snow,305
2012-12-10,24,12,1,19,10,-4,86,72,62,30.01,29.76,29.68,10,9,4,18,11,26,0.23,5,Snow,253
2012-12-11,28,20,14,21,14,7,86,78,69,29.81,29.71,29.52,10,10,5,20,7,26,0.00,7,Snow,100
2012-12-12,32,23,14,23,17,9,100,86,69,29.94,29.71,29.52,10,8,1,14,7,,0.10,6,Snow,59
2012-12-13,28,16,5,27,14,0,100,86,78,30.03,29.97,29.91,10,7,2,14,7,,0.18,8,Snow,142
2012-12-14,23,14,5,21,14,1,100,91,79,29.91,29.77,29.69,10,5,0,13,6,,0.00,8,Fog,183
2012-12-15,24,15,6,23,15,3,100,90,85,29.81,29.76,29.70,10,8,0,16,6,,0.00,7,Fog-Rain,287
2012-12-16,23,20,17,19,17,14,100,92,86,29.80,29.77,29.73,10,6,0,7,4,,0.05,8,Rain-Snow,108
2012-12-17,23,19,15,21,18,14,100,92,86,29.73,29.59,29.48,10,6,1,13,5,,0.00,8,Rain,167
2012-12-18,32,26,19,27,20,10,100,84,68,29.67,29.55,29.49,10,9,2,23,7,26,0.37,6,Rain-Snow,221
2012-12-19,19,11,3,10,7,0,85,74,67,30.11,29.92,29.68,10,9,3,20,14,24,0.08,4,Rain-Snow,280
2012-12-20,14,4,-7,3,-6,-15,92,75,57,30.13,30.11,30.08,10,10,5,10,4,,0.00,0,Snow,236
2012-12-21,26,11,-4,18,3,-11,85,76,59,30.12,30.03,29.97,10,10,6,7,1,,0.00,0,Snow,133
2012-12-22,17,9,1,12,2,-2,92,78,67,30.19,30.13,30.00,10,10,10,13,5,,0.00,2,,7
2012-12-23,6,2,-2,1,-1,-8,85,78,72,30.14,30.11,30.06,10,7,1,12,7,,0.91,8,Snow,67
2012-12-24,3,-8,-18,-2,-13,-27,85,74,63,30.40,30.26,30.15,10,10,10,8,2,,0.00,6,Snow,236
2012-12-25,6,1,-4,1,0,-9,92,76,72,30.46,30.39,30.27,10,7,2,8,5,,0.06,7,Snow,306
2012-12-26,10,0,-11,5,-2,-18,85,78,70,30.26,30.14,30.07,10,9,5,12,4,,0.00,5,Snow,95
2012-12-27,12,6,1,5,1,-2,92,80,72,30.07,30.04,30.02,10,8,2,7,4,,0.07,6,Snow,105
2012-12-28,12,2,-7,7,-2,-15,92,79,71,30.05,30.01,29.97,10,10,3,8,4,,0.00,5,Snow,252
2012-12-29,17,4,-9,10,-2,-17,86,78,71,30.02,29.98,29.96,10,10,10,8,3,,0.00,1,,233
2012-12-30,24,15,6,19,9,0,86,78,67,30.15,30.00,29.93,10,10,1,20,7,26,0.08,5,Snow,286
2012-12-31,12,8,5,7,2,-2,85,78,72,30.18,30.14,30.11,10,10,7,10,4,,0.00,6,Snow,80